Location: Dumpton Point
(51.3500°N, 1.4433°E)
Time: 07:07:15
(UTC+00:00)

Envisat - Visible Passes

Search period start: 07 December 2021 00:00
Search period end: 17 December 2021 00:00
Orbit: 764 x 766 km, 98.2° (Epoch: 06 December)

Date Brightness Start Highest point End Pass type
(mag) Time Alt. Az. Time Alt. Az. Time Alt. Az.
07 Dec 5.6 03:42:21 10° NE 03:45:44 18° E 03:49:06 10° SE visible
07 Dec 2.8 05:20:16 10° NNE 05:25:22 78° WNW 05:30:27 10° SSW visible
07 Dec 4.5 07:00:41 10° NNW 07:03:37 16° NW 07:06:33 10° W visible
07 Dec 4.8 16:40:37 10° SSW 16:45:16 36° W 16:49:58 10° NNW visible
08 Dec 3.7 04:43:27 10° NNE 04:48:28 54° E 04:53:25 10° S visible
08 Dec 3.9 06:22:58 10° N 06:27:12 27° WNW 06:31:25 10° WSW visible
08 Dec 6.2 17:46:37 10° WSW 17:48:12 11° W 17:49:47 10° WNW visible
09 Dec 4.9 04:06:59 10° NE 04:11:20 28° E 04:15:40 10° SSE visible
09 Dec 3.1 05:45:42 10° N 05:50:36 49° WNW 05:55:29 10° SW visible
09 Dec 5.6 17:06:50 10° SW 17:10:49 23° W 17:14:49 10° NW visible
10 Dec 5.8 03:31:19 10° NE 03:34:01 14° E 03:36:43 10° ESE visible
10 Dec 2.9 05:08:41 10° NNE 05:13:49 86° ESE 05:18:54 10° SSW visible
10 Dec 4.3 06:48:47 10° NNW 06:52:13 18° NW 06:55:37 10° W visible
10 Dec 4.4 16:28:48 10° S 16:33:39 44° W 16:38:31 10° NNW visible
11 Dec 4.0 04:31:58 10° NNE 04:36:50 44° E 04:41:41 10° S visible
11 Dec 3.6 06:11:15 10° N 06:15:44 32° WNW 06:20:13 10° SW visible
11 Dec 6.0 17:33:47 10° WSW 17:36:27 14° W 17:39:08 10° NW visible
12 Dec 5.2 03:55:40 10° NE 03:59:40 23° E 04:03:39 10° SE visible
12 Dec 2.9 05:34:04 10° N 05:39:05 60° WNW 05:44:04 10° SSW visible
12 Dec 5.3 16:54:49 10° SSW 16:59:08 28° W 17:03:29 10° NW visible
13 Dec 6.0 03:20:40 10° ENE 03:22:16 11° E 03:23:52 10° ESE visible
13 Dec 3.2 04:57:08 10° NNE 05:02:14 71° ESE 05:07:18 10° S visible
13 Dec 4.1 06:36:58 10° N 06:40:47 22° WNW 06:44:36 10° WSW visible
14 Dec 4.4 04:20:31 10° NNE 04:25:12 36° E 04:29:52 10° SSE visible
14 Dec 3.4 05:59:33 10° N 06:04:16 39° WNW 06:08:56 10° SW visible
14 Dec 5.8 17:21:23 10° SW 17:24:44 18° W 17:28:06 10° NW visible
15 Dec 5.5 03:44:25 10° NE 03:47:58 19° E 03:51:30 10° SE visible
15 Dec 2.8 05:22:27 10° NNE 05:27:33 74° WNW 05:32:36 10° SSW visible
15 Dec 4.5 07:02:59 10° NNW 07:05:45 15° NW 07:08:31 10° W visible
15 Dec 4.9 16:42:53 10° SSW 16:47:28 34° W 16:52:06 10° NNW visible
16 Dec 3.5 04:45:37 10° NNE 04:50:39 58° E 04:55:39 10° S visible
16 Dec 3.9 06:25:12 10° N 06:29:21 26° WNW 06:33:29 10° WSW visible
16 Dec 6.3 17:49:27 10° W 17:50:26 11° W 17:51:26 10° WNW visible
